This is the latest recevied weather packets stored in our database for station/object KJ5JYX. If no packets are shown the sender has not sent any weather packets the latest 10 day(s).
| Time | Temp. | Humidity | Pressure | Rain* | Wind** | Luminosity | Snow |
|---|---|---|---|---|---|---|---|
| 1777602204 | 16.67° C | 99% | 1015.3 hPa | 4.83 mm | - | 0 W/m² | - |
| 1777601899 | 16.67° C | 99% | 1015.5 hPa | 3.05 mm | - | 0 W/m² | - |
| 1777601594 | 16.67° C | 99% | 1015.3 hPa | 1.27 mm | - | 0 W/m² | - |
| 1777601289 | 16.67° C | 99% | 1015.4 hPa | 0 mm | - | 0 W/m² | - |
| 1777600987 | 16.67° C | 99% | 1015.2 hPa | 0 mm | - | 0 W/m² | - |
| 1777600683 | 16.67° C | 99% | 1015.1 hPa | 0 mm | - | 0 W/m² | - |
| 1777600379 | 16.67° C | 99% | 1014.7 hPa | 0 mm | - | 0 W/m² | - |
| 1777600075 | 16.67° C | 99% | 1014.3 hPa | 0 mm | - | 0 W/m² | - |
| 1777599771 | 16.67° C | 99% | 1013.9 hPa | 0 mm | - | 0 W/m² | - |
| 1777599467 | 16.67° C | 99% | 1014 hPa | 0 mm | - | 0 W/m² | - |
| 1777599164 | 16.67° C | 99% | 1013.6 hPa | 0 mm | - | 0 W/m² | - |
| 1777598864 | 16.67° C | 99% | 1013.5 hPa | 0 mm | - | 0 W/m² | - |
| 1777598563 | 16.67° C | 99% | 1013.5 hPa | 0 mm | - | 0 W/m² | - |
| 1777598259 | 16.67° C | 99% | 1013.1 hPa | 0 mm | - | 0 W/m² | - |
| 1777597957 | 16.67° C | 99% | 1013 hPa | 0 mm | - | 1 W/m² | - |
| 1777597656 | 16.67° C | 99% | 1012.8 hPa | 0 mm | - | 2 W/m² | - |
| 1777597352 | 16.67° C | 99% | 1013.5 hPa | 0 mm | - | 3 W/m² | - |
| 1777597047 | 16.67° C | 99% | 1013.5 hPa | 0 mm | - | 3 W/m² | - |
| 1777596744 | 16.67° C | 99% | 1013.5 hPa | 0 mm | - | 3 W/m² | - |
| 1777596440 | 16.67° C | 99% | 1013.5 hPa | 1.78 mm | - | 3 W/m² | - |
| 1777596138 | 16.67° C | 99% | 1012.8 hPa | 4.83 mm | - | 4 W/m² | - |
| 1777595834 | 17.22° C | 99% | 1012.7 hPa | 3.05 mm | - | 6 W/m² | - |
| 1777595529 | 17.22° C | 99% | 1012.4 hPa | 3.56 mm | - | 5 W/m² | - |
| 1777595226 | 17.22° C | 99% | 1013 hPa | 3.05 mm | - | 5 W/m² | - |
| 1777594921 | 17.22° C | 99% | 1013.7 hPa | 3.05 mm | - | 6 W/m² | - |
* Rain latest hour (hover to see other rain measurements)
** Current wind speed in m/s (hover to see current wind gust speed)